星链-1199 (STARLINK-1199 )

导读

STARLINK-1199是美国太空探索技术公司(SpaceX)星链(Starlink)星座中的低轨卫星,于2020年2月17日发射入轨。作为星链第一代组网卫星,它运行在近地轨道,依托相控阵波束、OFDM传输技术,为全球提供低时延卫星互联网服务,助力实现偏远地区网络覆盖、应急通信等场景的互联互通,是星链大规模星座部署中的一员,推动了全球卫星互联网络的建设进程。

基本信息
目录编号:
45201
目录名称:
STARLINK-1199
国际标识:
2020-012Z
轨道中心:
EARTH
卫星名称:
星链-1199
卫星全名:
星链-1199 (STARLINK-1199 )
卫星状态:
在轨 (已飞行2401 天)
发射日期:
2020-02-17 UTC
国别 :
美国 (US)
星等 :
--
该卫星已列入 空间交会检测服务 Space Conjunction Data Service (SCDS) ,当前飞行风险评估等级: 无高风险
轨道信息
数据来源 国际轨道数据 AOE轨道数据
星历时间 2026-09-14T05:16:18+0800
3小时前
查看轨道信息
2026-09-10T22:00:00+0800
3天前
查看轨道信息
半长轴 6815.355km 6816.221km
偏心率 0.0001426 0.0001222
轨道倾角 53.152° 53.151°
近地点辐角 62.208° 65.908°
升交点赤经 222.494° 238.138°
平近点角 297.907° 297.837°
近地点 436.246km 437.251km
远地点 438.19km 438.917km
周期 93.324分钟 93.342分钟
每日圈数 15.430148 15.427207
详细信息
固有亮度:
5
最大亮度:
2.5
卫星平台:
Starlink V1.0
覆盖范围:
全球
运营商:
太空探索技术公司
运营商所在国:
美国
制造商(研发单位):
太空探索技术公司
制造商所在国:
美国
使用方式:
暂无
卫星简介
星链(Starlink)计划是由太空探索技术公司(SpaceX)提出的一个巨型低轨卫星互联网星座项目,计划在2019年至2024年间在太空搭建由约1.2万颗卫星组成的“星链”网络,其中1584颗将部署在地球上空550千米处的近地轨道,并从2020年开始工作。该卫星仍在工作。
2D轨道图
3D轨道图
轨道高度分析图
轨道倾角分析图
轨道综合分析图
查看轨道综合分析图
交会数据列表
事件ID 空间交会对象 最接近时刻(TCA) 交会距离 交会风险概率(CRP) 交会风险指数(CRI) 操作
CDM_260915-084704-520104-540521
2026-09-15T
08:47:59+0000
0.820 km
远距离
3.930505E-5 中风险 0.67
与全量物体交会距离演化趋势
与全量物体交会风险概率演化趋势